, CA

(GMT )
Point Mugu

Weather History for KNTD - January, 2013

Change the Weather History Date:

Monday, January 7, 2013

  Actual Average Record
Temperature  
Mean Temperature 50 °F -  
Max Temperature 62 °F 61 °F 78 °F (2003)
Min Temperature 39 °F 44 °F 36 °F (1999)
Degree Days  
Heating Degree Days 14    
Moisture  
Dew Point 45 °F    
Average Humidity 84    
Maximum Humidity 97    
Minimum Humidity 74    
Precipitation  
Precipitation 0.00 in - - ()
Sea Level Pressure  
Sea Level Pressure 30.07 in    
Wind  
Wind Speed 5 mph (North)    
Max Wind Speed 15 mph    
Max Gust Speed -    
Visibility 7 miles    
Events      
Averages and records for this station are not official NWS values.
T = Trace of Precipitation, MM = Missing Value Source: NWS Daily Summary

Daily Weather History Graph

Daily Weather History Graph

Search for Another Location

Airport or City:

Trip Planner

Search our weather history database for the weather conditions in past years. The results will help you decide how hot, cold, wet, or windy it might be!

Date:

Astronomy

Jan. 07, 2013 Rise Set
Actual Time 7:02 AM PST 5:03 PM PST
Civil Twilight 6:35 AM PST 5:30 PM PST
Nautical Twilight 6:04 AM PST 6:01 PM PST
Astronomical Twilight 5:34 AM PST 6:32 PM PST
Moon 2:35 AM PST (1/7) 1:16 PM PST (1/7)
Length of Visible Light 10h 55m
Length of Day
10h 00m
Waning Crescent, 21% of the Moon is Illuminated
Jan 7
Waning Crescent
Jan 11
New
Jan 18
First Quarter
Jan 26
Full
Feb 3
Last Quarter

Hourly Weather History & Observations

Time (PST) Temp. Windchill Dew Point Humidity Pressure Visibility Wind Dir Wind Speed Gust Speed Precip Events Conditions
12:54 AM 45.0 °F 41.2 °F 44.1 °F 97% 30.05 in - NNE 6.9 mph - N/A   Clear
1:54 AM 43.0 °F 41.3 °F 42.1 °F 97% 30.05 in - NNE 3.5 mph - N/A   Clear
2:54 AM 42.1 °F 39.2 °F 39.9 °F 92% 30.06 in - North 4.6 mph - N/A   Clear
3:54 AM 42.1 °F 39.2 °F 41.0 °F 96% 30.07 in - North 4.6 mph - N/A   Clear
4:54 AM 39.9 °F 36.7 °F 39.0 °F 97% 30.07 in - North 4.6 mph - N/A   Clear
5:54 AM 41.0 °F 36.4 °F 37.9 °F 89% 30.10 in 7.0 mi NE 6.9 mph - N/A   Clear
6:54 AM 39.0 °F - 37.0 °F 93% 30.11 in 7.0 mi Calm Calm - N/A   Partly Cloudy
7:54 AM 42.1 °F 34.5 °F 37.9 °F 85% 30.12 in 7.0 mi ENE 15.0 mph - N/A   Clear
8:54 AM 48.9 °F - 42.1 °F 77% 30.14 in 7.0 mi NW 8.1 mph - N/A   Scattered Clouds
9:54 AM 57.0 °F - 48.9 °F 74% 30.15 in 7.0 mi NNW 6.9 mph - N/A   Scattered Clouds
10:54 AM 60.1 °F - 54.0 °F 80% 30.14 in 7.0 mi Calm Calm - N/A   Partly Cloudy
11:54 AM 62.1 °F - 57.0 °F 84% 30.10 in 7.0 mi North 3.5 mph - N/A   Scattered Clouds
12:54 PM 59.0 °F - 51.1 °F 75% 30.06 in 7.0 mi WSW 8.1 mph - N/A   Scattered Clouds
1:54 PM 60.1 °F - 52.0 °F 75% 30.04 in 7.0 mi West 12.7 mph - N/A   Partly Cloudy
2:54 PM 60.1 °F - 54.0 °F 80% 30.04 in 7.0 mi WNW 8.1 mph - N/A   Scattered Clouds
3:54 PM 60.1 °F - 55.0 °F 83% 30.04 in 7.0 mi NW 4.6 mph - N/A   Scattered Clouds
4:54 PM 57.0 °F - 51.1 °F 81% 30.03 in 7.0 mi Calm Calm - N/A   Mostly Cloudy
5:54 PM 54.0 °F - 48.0 °F 80% 30.04 in 7.0 mi Calm Calm - N/A   Scattered Clouds
6:54 PM 53.1 °F - 46.0 °F 77% 30.05 in 7.0 mi Calm Calm - N/A   Scattered Clouds
7:54 PM 50.0 °F - 43.0 °F 77% 30.05 in 7.0 mi NNW 4.6 mph - N/A   Clear
8:54 PM 48.0 °F - 42.1 °F 80% 30.05 in 7.0 mi North 4.6 mph - N/A   Clear
9:54 PM 46.0 °F 42.5 °F 41.0 °F 83% 30.05 in 7.0 mi North 6.9 mph - N/A   Clear
10:54 PM 46.0 °F 44.8 °F 41.0 °F 83% 30.05 in 7.0 mi NNE 3.5 mph - N/A   Clear
11:54 PM 45.0 °F 43.5 °F 39.9 °F 82% 30.05 in - North 3.5 mph - N/A   Clear